Grand Forks Air Force Base, ND

5:25 PM CDT on September 30, 2016 (GMT -0500)
Grand Forks International

Weather History for KGFK - March, 2013

Change the Weather History Date:

Wednesday, March 20, 2013

  Actual Average Record
Temperature  
Mean Temperature 4 °F 27 °F  
Max Temperature 15 °F 36 °F 60 °F (1946)
Min Temperature -7 °F 18 °F -14 °F (1955)
Degree Days  
Heating Degree Days 61 38  
Month to date heating degree days 1044 858  
Since 1 July heating degree days 8045 8008  
Cooling Degree Days 0 0  
Month to date cooling degree days 0 0  
Year to date cooling degree days 0 0  
Moisture  
Dew Point -5 °F    
Average Humidity 66    
Maximum Humidity 78    
Minimum Humidity 53    
Precipitation  
Precipitation 0.00 in 0.03 in 0.34 in (1976)
Month to date precipitation 0.97 0.61  
Year to date precipitation 1.76 1.68  
Snow  
Snow 0.00 in 0.20 in 3.40 in (1976)
Month to date snowfall 13.3 5.4  
Since 1 July snowfall 43.2 42.6  
Snow Depth 13.00 in    
Sea Level Pressure  
Sea Level Pressure 30.33 in    
Wind  
Wind Speed 12 mph (NW)    
Max Wind Speed 20 mph    
Max Gust Speed 22 mph    
Visibility 10 miles    
Events      
T = Trace of Precipitation, MM = Missing Value Source: NWS Daily Summary

Daily Weather History Graph

Daily Weather History Graph

Search for Another Location

Airport or City:

Trip Planner

Search our weather history database for the weather conditions in past years. The results will help you decide how hot, cold, wet, or windy it might be!

Date:

Astronomy

Mar. 20, 2013 Rise Set
Actual Time 7:31 AM CDT 7:41 PM CDT
Civil Twilight 7:00 AM CDT 8:12 PM CDT
Nautical Twilight 6:23 AM CDT 8:49 PM CDT
Astronomical Twilight 5:46 AM CDT 9:27 PM CDT
Moon 12:54 PM CDT (3/20) 3:35 AM CDT (3/20)
Length of Visible Light 13h 12m
Length of Day
12h 10m
First Quarter, 59% of the Moon is Illuminated
Mar 20
First Quarter
Mar 27
Full
Apr 2
Last Quarter
Apr 10
New
Apr 18
First Quarter

Hourly Weather History & Observations

Time (CDT) Temp. Windchill Dew Point Humidity Pressure Visibility Wind Dir Wind Speed Gust Speed Precip Events Conditions
12:53 AM -0.9 °F -16.4 °F -7.1 °F 75% 30.37 in 10.0 mi West 9.2 mph - N/A   Clear
1:53 AM 1.0 °F -17.3 °F -6.0 °F 72% 30.36 in 10.0 mi WNW 13.8 mph - N/A   Clear
2:53 AM -0.0 °F -18.0 °F -7.1 °F 72% 30.37 in 10.0 mi WNW 12.7 mph - N/A   Clear
3:53 AM 1.0 °F -16.6 °F -7.1 °F 69% 30.37 in 10.0 mi NW 12.7 mph - N/A   Clear
4:53 AM -4.0 °F -20.2 °F -9.9 °F 76% 30.37 in 10.0 mi WNW 9.2 mph - N/A   Clear
5:53 AM -5.1 °F -24.3 °F -11.0 °F 76% 30.38 in 10.0 mi WNW 12.7 mph - N/A   Clear
6:53 AM -6.0 °F -23.6 °F -11.9 °F 75% 30.38 in 10.0 mi WNW 10.4 mph - N/A   Clear
7:53 AM -5.1 °F -20.4 °F -11.0 °F 76% 30.39 in 10.0 mi WNW 8.1 mph - N/A   Clear
8:53 AM -0.9 °F -16.4 °F -9.0 °F 69% 30.39 in 10.0 mi WNW 9.2 mph - N/A   Clear
9:53 AM 3.0 °F -13.3 °F -6.0 °F 66% 30.38 in 10.0 mi NW 11.5 mph - N/A   Clear
10:53 AM 7.0 °F -9.8 °F -2.9 °F 64% 30.37 in 10.0 mi NNW 13.8 mph - N/A   Clear
11:53 AM 9.0 °F -8.5 °F -0.9 °F 64% 30.36 in 10.0 mi NNW 16.1 mph - N/A   Clear
12:53 PM 12.0 °F -4.5 °F 1.0 °F 61% 30.35 in 10.0 mi NNW 16.1 mph - N/A   Clear
1:53 PM 12.9 °F -3.4 °F 1.0 °F 59% 30.33 in 10.0 mi NNW 16.1 mph - N/A   Clear
2:53 PM 15.1 °F -0.6 °F 1.0 °F 54% 30.31 in 10.0 mi NNW 16.1 mph - N/A   Clear
3:53 PM 15.1 °F -0.1 °F 1.0 °F 54% 30.30 in 10.0 mi NNW 15.0 mph - N/A   Clear
4:53 PM 15.1 °F -0.6 °F 1.0 °F 54% 30.28 in 10.0 mi NNW 16.1 mph - N/A   Clear
5:53 PM 14.0 °F -0.2 °F 1.0 °F 56% 30.27 in 10.0 mi NNW 12.7 mph - N/A   Clear
6:53 PM 12.0 °F -1.3 °F -0.0 °F 59% 30.27 in 10.0 mi NNW 10.4 mph - N/A   Clear
7:53 PM 7.0 °F -6.6 °F -2.0 °F 67% 30.27 in 10.0 mi NNW 9.2 mph - N/A   Clear
8:53 PM 3.9 °F -9.4 °F -5.1 °F 66% 30.27 in 10.0 mi North 8.1 mph - N/A   Clear
9:53 PM 1.0 °F -14.0 °F -7.1 °F 69% 30.26 in 10.0 mi NNW 9.2 mph - N/A   Clear
10:53 PM -0.0 °F -11.6 °F -7.1 °F 72% 30.25 in 10.0 mi NNW 5.8 mph - N/A   Clear
11:53 PM -4.0 °F -16.3 °F -9.9 °F 76% 30.24 in 10.0 mi NW 5.8 mph - N/A   Clear